Location: Henry
(41.9986°N, 104.0474°W)
Time: 14:16:42
(UTC+00:00)

ARIANE 6 FM1 Upper Stage - Visible Passes

Search period start: 13 October 2024 00:00
Search period end: 23 October 2024 00:00
Orbit: 563 x 595 km, 62.0° (Epoch: 12 October)

Date Brightness Start Highest point End Pass type
(mag) Time Alt. Az. Time Alt. Az. Time Alt. Az.
13 Oct 5.3 02:25:21 10° N 02:26:02 11° NNE 02:26:02 11° NNE visible
14 Oct 5.1 02:29:03 10° N 02:30:13 14° N 02:30:13 14° N visible
15 Oct 5.0 02:32:57 10° NNW 02:34:25 17° N 02:34:25 17° N visible
16 Oct 4.8 02:36:57 10° NNW 02:38:39 20° N 02:38:39 20° N visible
17 Oct 5.0 01:03:50 10° NNE 01:04:57 11° NNE 01:06:05 10° NE visible
17 Oct 4.6 02:41:02 10° NNW 02:42:56 24° NNW 02:42:56 24° NNW visible
18 Oct 4.7 01:07:09 10° N 01:09:32 14° NNE 01:10:59 13° NE visible
18 Oct 4.5 02:45:12 10° NW 02:47:16 27° NNW 02:47:16 27° NNW visible
19 Oct 4.3 01:10:52 10° N 01:14:03 19° NE 01:15:23 17° ENE visible
19 Oct 4.6 02:49:27 10° NW 02:51:40 29° NW 02:51:40 29° NW visible
20 Oct 3.9 01:14:45 10° NNW 01:18:28 27° NE 01:19:53 22° ENE visible
20 Oct 4.7 02:53:48 10° NW 02:56:11 28° WNW 02:56:11 28° WNW visible
21 Oct 3.3 01:18:43 10° NNW 01:22:49 38° NE 01:24:30 27° E visible
21 Oct 5.0 02:58:21 10° WNW 03:00:49 23° W 03:00:49 23° W visible
22 Oct 2.8 01:22:45 10° NNW 01:27:04 59° NE 01:29:18 27° ESE visible
22 Oct 5.4 03:03:15 10° WNW 03:05:37 16° WSW 03:05:37 16° WSW visible
